OH6LSL Weather Reports


time (UTC)temp
F
wind
direction
speed
knots
gust
knots
rain 1hr
in
rain 24hr
in
rain mn
in
humidity
%
barometer
mb
20260506091431 42 175 0.9 5.2 0.00 0.00 0.00 54 1005.9
20260506090503 42 144 0.0 9.6 0.00 0.00 0.00 55 1005.9
20260506085442 42 219 1.7 5.2 0.00 0.00 0.00 53 1005.8
20260506084443 43 260 0.0 4.3 0.00 0.00 0.00 52 1005.6
20260506083434 43 240 1.7 5.2 0.00 0.00 0.00 51 1005.6
20260506082433 45 206 0.0 6.1 0.00 0.00 0.00 47 1005.4
20260506081435 45 200 0.9 8.7 0.00 0.00 0.00 49 1005.2
20260506080446 45 257 0.0 5.2 0.00 0.00 0.00 45 1005.2
20260506073442 44 234 0.0 6.1 0.00 0.00 0.00 49 1004.9
20260506072501 43 188 0.9 6.1 0.00 0.00 0.00 51 1004.6
20260506071443 43 232 2.6 8.7 0.00 0.00 0.00 50 1004.5
20260506070451 42 246 0.9 8.7 0.00 0.00 0.00 51 1004.5
20260506062438 41 200 0.0 4.3 0.00 0.00 0.00 52 1003.9
20260506061440 41 254 0.9 6.1 0.00 0.00 0.00 53 1003.7
20260506060450 41 272 0.0 1.7 0.00 0.00 0.00 55 1003.7
20260506050440 39 217 0.9 4.3 0.00 0.00 0.00 56 1002.9
20260506044442 39 240 0.9 8.7 0.00 0.00 0.00 58 1002.8
20260506043451 38 200 2.6 5.2 0.00 0.00 0.00 57 1002.8
20260506042432 38 253 0.0 4.3 0.00 0.00 0.00 58 1002.7
20260506041436 38 256 1.7 5.2 0.00 0.00 0.00 59 1002.5
20260506040446 38 243 0.0 6.1 0.00 0.00 0.00 59 1002.5
20260506035446 38 239 0.0 4.3 0.00 0.00 0.00 59 1002.3
20260506034434 38 223 0.0 5.2 0.00 0.00 0.00 59 1002.3
20260506033444 38 220 0.9 7.0 0.00 0.00 0.00 59 1002.3
20260506032445 37 241 2.6 8.7 0.00 0.00 0.00 59 1002.2
20260506031450 37 181 0.0 6.1 0.00 0.00 0.00 60 1002.0
20260506030441 37 251 0.9 7.0 0.00 0.00 0.00 59 1002.0
20260506025442 37 243 0.9 4.3 0.00 0.00 0.00 61 1001.9
20260506024459 36 223 2.6 5.2 0.00 0.00 0.00 61 1001.8
20260506023449 36 232 1.7 7.0 0.00 0.00 0.00 62 1001.8
20260506022451 36 198 0.0 4.3 0.00 0.00 0.00 62 1001.8
20260506021434 36 263 1.7 5.2 0.00 0.00 0.00 61 1001.7
20260506020444 37 227 1.7 6.1 0.00 0.00 0.00 61 1001.7
20260506015446 37 239 1.7 7.0 0.00 0.00 0.00 60 1001.6
20260506014445 37 216 0.0 5.2 0.00 0.00 0.00 61 1001.4
20260506013437 37 220 0.9 7.0 0.00 0.00 0.00 60 1001.4
20260506012442 37 199 1.7 5.2 0.00 0.00 0.00 60 1001.2
20260506011443 37 246 2.6 6.1 0.00 0.00 0.00 60 1001.1
20260506010434 37 224 0.9 6.1 0.00 0.00 0.00 60 1001.1
20260506005436 37 254 1.7 7.0 0.00 0.00 0.00 60 1001.0
20260506004455 37 265 1.7 6.1 0.00 0.00 0.00 60 1000.9
20260506003508 37 219 1.7 10.4 0.00 0.00 0.00 60 1000.9
20260506002449 37 212 0.9 6.1 0.00 0.00 0.00 60 1000.8
20260506001434 37 196 0.0 8.7 0.00 0.00 0.00 59 1000.7
20260506000445 37 244 0.0 11.3 0.00 0.00 0.00 60 1000.7
20260505235444 38 268 0.0 6.1 0.00 0.00 0.00 59 1000.6
20260505234445 37 237 0.0 4.3 0.00 0.00 0.00 59 1000.5
20260505233434 38 236 0.9 7.8 0.00 0.00 0.00 58 1000.5
20260505232438 37 240 0.9 2.6 0.00 0.00 0.00 58 1000.4
20260505231440 38 250 0.0 5.2 0.00 0.00 0.00 58 1000.4
20260505230448 38 222 0.0 4.3 0.00 0.00 0.00 55 1000.4
20260505225451 39 243 2.6 6.1 0.00 0.00 0.00 53 1000.4
20260505224431 39 237 1.7 6.1 0.00 0.00 0.00 53 1000.3
20260505223444 39 236 0.0 4.3 0.00 0.00 0.00 53 1000.3
20260505222448 38 222 1.7 6.1 0.00 0.00 0.00 54 1000.3
20260505221449 38 241 0.0 7.0 0.00 0.00 0.00 55 1000.3
20260505220441 38 160 0.0 6.1 0.00 0.00 0.00 56 1000.3
20260505215440 38 243 0.0 5.2 0.00 0.00 0.00 57 1000.2
20260505214436 37 237 0.0 1.7 0.00 0.00 0.00 58 1000.2
20260505213446 37 237 2.6 6.1 0.00 0.00 0.00 59 1000.2
20260505212432 37 234 0.0 0.0 0.00 0.00 0.00 60 1000.0
20260505211432 37 234 0.0 0.0 0.00 0.00 0.00 60 999.9
20260505210442 37 234 0.0 0.9 0.00 0.00 0.00 60 999.9
20260505205442 36 227 0.0 1.7 0.00 0.00 0.00 62 999.9
20260505204445 37 227 0.0 0.0 0.00 0.00 0.00 63 999.8
20260505203438 37 227 0.0 0.0 0.00 0.00 0.00 64 999.8
20260505202441 37 227 0.0 0.0 0.00 0.00 0.00 63 999.7
20260505201440 37 227 0.0 0.9 0.00 0.00 0.00 62 999.7
20260505200448 38 227 0.0 0.0 0.00 0.00 0.00 59 999.7
20260505195451 38 227 0.0 0.0 0.00 0.00 0.00 57 999.7
20260505194432 39 227 0.0 0.0 0.00 0.00 0.00 56 999.6
20260505193445 39 227 0.0 0.0 0.00 0.00 0.00 54 999.6
20260505192448 40 227 0.0 0.0 0.00 0.00 0.00 52 999.6
20260505191508 41 229 0.0 0.0 0.00 0.00 0.00 51 999.5
20260505190439 41 229 0.0 2.6 0.00 0.00 0.00 49 999.5
20260505185440 42 261 0.9 3.5 0.00 0.00 0.00 48 999.3
20260505184441 42 208 0.0 4.3 0.00 0.00 0.00 47 999.2
20260505183431 42 200 2.6 7.0 0.00 0.00 0.00 44 999.2
20260505182455 43 233 0.0 2.6 0.00 0.00 0.00 45 999.0
20260505181435 43 205 0.0 4.3 0.00 0.00 0.00 43 998.9
20260505180442 44 202 0.0 3.5 0.00 0.00 0.00 43 998.9
20260505175445 44 210 0.0 3.5 0.00 0.00 0.00 40 998.8
20260505174446 45 215 0.9 3.5 0.00 0.00 0.00 39 998.6
20260505173439 45 280 0.0 1.7 0.00 0.00 0.00 42 998.6
20260505172439 45 213 1.7 5.2 0.00 0.00 0.00 39 998.6
20260505171500 44 152 0.0 4.3 0.00 0.00 0.00 44 998.6
20260505170452 44 244 0.9 5.2 0.00 0.00 0.00 45 998.6
20260505165451 44 244 0.0 4.3 0.00 0.00 0.00 44 998.5
20260505164450 45 222 0.0 2.6 0.00 0.00 0.00 45 998.5
20260505163440 46 171 0.9 4.3 0.00 0.00 0.00 42 998.5
20260505162502 45 254 0.0 0.0 0.00 0.00 0.00 45 998.5
20260505161442 45 254 0.9 4.3 0.00 0.00 0.00 46 998.4
20260505160433 46 222 0.0 6.1 0.00 0.00 0.00 47 998.4
20260505152453 48 222 0.9 6.1 0.00 0.00 0.00 41 998.2
20260505151452 47 217 0.9 6.1 0.00 0.00 0.00 43 998.1
20260505150441 48 191 0.9 8.7 0.00 0.00 0.00 43 998.1
20260505140501 49 219 1.7 7.0 0.00 0.00 0.00 34 997.8
20260505124439 49 243 0.9 6.1 0.00 0.00 0.00 34 997.2
20260505123450 48 268 1.7 5.2 0.00 0.00 0.00 33 997.2
20260505122510 48 241 2.6 10.4 0.00 0.00 0.00 34 997.1
20260505121449 48 282 0.9 5.2 0.00 0.00 0.00 30 997.1
20260505120444 48 261 2.6 7.0 0.00 0.00 0.00 33 997.1
20260505115444 48 174 2.6 6.1 0.00 0.00 0.00 34 997.0
20260505114507 48 240 3.5 7.0 0.00 0.00 0.00 36 996.8
20260505113440 49 189 3.5 8.7 0.00 0.00 0.00 36 996.8
20260505112504 48 258 4.3 8.7 0.00 0.00 0.00 36 996.7
20260505111443 48 222 3.5 9.6 0.00 0.00 0.00 35 996.7
20260505110448 48 311 2.6 7.0 0.00 0.00 0.00 41 996.7
20260505101504 47 271 0.0 5.2 0.00 0.00 0.00 40 996.1
20260505100433 46 268 0.0 7.0 0.00 0.00 0.00 46 996.1
20260505095451 45 312 0.9 8.7 0.00 0.00 0.00 45 996.0
20260505094454 45 246 2.6 14.8 0.00 0.00 0.00 44 995.9
20260505093503 44 246 2.6 8.7 0.00 0.00 0.00 43 995.9
20260505092442 44 264 0.0 6.1 0.00 0.00 0.00 49 995.7